Regional Weather Roundup
Issued by NWS

Home | Current Version | Previous Version | Text Only | Print | Product List | Glossary On
Versions: 1 2 3 4 5 6 7 8 9 10 11 12 13 14 15 16 17 18 19 20 21 22 23 24 25 26 27 28 29 30 31 32 33 34 35 36 37 38 39 40 41 42 43 44 45 46 47 48 49 50
000
ASUS44 KJAN 281310
RWRMS

MISSISSIPPI HOURLY WEATHER ROUNDUP
NATIONAL WEATHER SERVICE JACKSON MS
800 AM CDT SUN MAY 28 2017

NOTE: "FAIR: INDICATES FEW OR NO CLOUDS BELOW 12,000 FEET WITH NO
SIGNIFICANT WEATHER AND/OR OBSTRUCTIONS TO VISIBILITY.

MSZ001>002-007>008-010>013-018>021-025>028-034>036-281400-
NORTHWEST MISSISSIPPI

CITY           SKY/WX    TMP DP  RH WIND       PRES   REMARKS
BATESVILLE     LGT RAIN  65  63  94 S8        30.02F
CLARKSDALE       N/A     66  66 100 MISG      30.03R
CLEVELAND      CLOUDY    67  67 100 S6        30.04F
GREENWOOD      LGT RAIN  66  65  96 S3        30.08R
GREENVILLE       N/A    N/A N/A N/A MISG      30.06F
OLIVE BRANCH   LGT RAIN N/A N/A N/A S12       29.94F FOG
OXFORD         LGT RAIN  63  63 100 S7        30.05F
TUNICA         PTSUNNY   63  63 100 S14       30.00F
WINONA         CLOUDY    65  64  97 CALM      30.07S
$$

MSZ003>006-009-014>017-022>024-029>033-037>039-281400-
NORTHEAST MISSISSIPPI

CITY           SKY/WX    TMP DP  RH WIND       PRES   REMARKS
COLUMBUS AFB   CLOUDY    67  67 100 S3        30.03F
CORINTH        DRIZZLE   66  63  88 SW7       29.99F
GOLDN TRIANGLE PTSUNNY   66  61  82 CALM      30.00F
STARKVILLE     CLOUDY    64  64 100 CALM      30.07R
TUPELO         CLOUDY    66  63  90 VRB3      30.03R
$$

MSZ040-058-281400-
CENTRAL MISSISSIPPI

CITY           SKY/WX    TMP DP  RH WIND       PRES   REMARKS
JACKSON INTL   TSTM      70  64  81 NE17G24   30.05R
JACKSON HAWKNS CLOUDY    72  62  71 NE14G22   30.05R THUNDER
MADISON        CLOUDY    66  63  88 NE5       30.06F
MERIDIAN KEY   LGT RAIN  72  65  78 N15G30    30.07R
MERIDIAN NAS   CLOUDY    70  62  76 N7        30.07S
VICKSBURG VKS  PTSUNNY   77  73  88 N10G20    30.01R
$$

MSZ059>079-281400-
SOUTH MISSISSIPPI

CITY           SKY/WX    TMP DP  RH WIND       PRES   REMARKS
COLUMBIA       FAIR      79  75  89 CALM      30.08S
HATTIESBURG    PTSUNNY   80  75  84 SW3       30.06R
LAUREL         FAIR      78  78 100 S3        30.04S
MCCOMB         CLOUDY    78  74  87 E3        30.05R
NATCHEZ        CLOUDY    79  75  87 SE3       30.03S
PINE BELT      PTSUNNY   79  73  83 CALM      30.07S
$$

MSZ080>082-281400-
COASTAL MISSISSIPPI

CITY           SKY/WX    TMP DP  RH WIND       PRES   REMARKS
BAY ST LOUIS   PTSUNNY   79  75  89 N5        30.05R
BILOXI         CLOUDY    77  75  94 E3        30.05R
PASCAGOULA     CLOUDY    81  75  82 CALM      30.05R
GULFPORT       CLOUDY    79  77  94 N3        30.04R FOG
$$

LAZ007>009-015>016-023>026-281400-
NORTHEAST LOUISIANA

CITY           SKY/WX    TMP DP  RH WIND       PRES   REMARKS
BASTROP        CLOUDY    67  67  98 NE6       30.07R
TALLULAH/VBURG TSTM      66  65  96 NE24G39   30.07R VSB 1
VIDALIA        CLOUDY    78  76  93 SE6       30.01S
$$



USA.gov is the U.S. government's official web portal to all federal, state and local government web resources and services.